Location: Zagreb
(45.8000°N, 16.0000°E)
Time: 02:47:45
(UTC+01:00)

Courier 1B - Pass Details

Date: 08 October 2020
Orbit: 963 x 1209 km, 28.3° (Epoch: 25 October)

Event Time Altitude Azimuth Distance (km) Brightness Sun altitude
Rises 21:29:45 0° 239° (WSW) 4,028 11.1 -32.6°
Reaches altitude 10° 21:33:19 10° 224° (SW) 3,097 10.2 -33.1°
Enters shadow 21:35:53 17° 206° (SSW) 2,615 9.7 -33.5°
